SCP
0 0 0 0 0 0 0 0 0 0 0 0 0 0 0 0 0 0 0 0 0 0 0 0 1 1 1 1 1 1 1 1 1 0 0 1 1 1 1 1 1 0 0
0 1 0 0 0 0 0 0 0 0 0 0 0 0 0 0 0 0 0 0 0 0 0 1 1 1 1 1 1 1 1 1 1 1 1 1 1 1 1 1 1 1 0
1 1 0 0 0 0 0 0 0 0 0 0 0 0 0 -0 -0 0 0 0 0 0 0 0 1 1 1 1 1 1 1 1 1 1 1 1 1 1 1 0 0 1 0
1 1 0 0 0 0 0 0 0 0 0 0 0 0 0 -0 -0 0 0 0 0 0 0 0 1 1 1 1 1 1 1 1 1 1 1 1 1 1 0 0 0 1 0
1 1 1 1 0 0 0 0 0 0 0 0 0 0 0 0 0 0 0 0 0 0 0 0 1 1 1 1 1 1 1 2 2 1 1 1 1 1 2 0 0 0 0
1 1 1 1 0 0 0 0 0 0 0 0 0 0 0 0 0 0 0 0 0 0 0 0 0 0 0 0 1 1 1 1 2 2 1 1 1 1 1 1 0 0 0
1 0 0 0 0 1 1 0 0 0 0 0 0 0 0 0 0 0 0 0 0 0 0 0 0 0 0 0 0 0 1 1 2 2 2 2 1 1 0 0 0 0 0
1 1 0 0 1 0 -0 0 0 0 0 0 0 0 -0 -0 0 0 0 0 0 0 0 0 0 0 1 1 0 0 0 1 1 1 1 0 0 0 1 1 0 0 0
1 1 1 1 1 1 1 0 0 -0 0 0 0 0 0 -0 -0 0 0 0 0 0 0 0 0 0 1 1 0 0 0 0 1 1 1 1 1 1 1 1 0 0 -0
1 1 1 1 1 1 0 0 0 0 0 0 0 0 0 0 0 -0 0 0 0 0 0 0 0 0 1 1 1 0 0 0 0 0 0 1 1 0 0 0 0 0 0
0 1 1 1 1 1 1 1 1 1 1 1 1 0 0 0 0 0 -0 0 0 0 0 1 1 1 1 1 1 0 0 0 0 0 0 0 0 0 0 0 1 0 0
0 0 1 1 1 1 1 2 2 1 1 1 1 0 1 0 0 0 0 0 0 0 0 0 0 1 1 0 0 0 0 0 0 0 0 0 0 0 0 0 0 0 -0
0 0 0 0 0 1 2 2 2 2 2 1 1 1 1 1 0 0 0 0 0 -0 0 0 0 0 1 0 0 0 0 0 0 0 0 0 0 0 0 0 0 0 0
0 0 0 0 0 0 1 2 2 2 1 1 1 1 2 1 0 0 0 0 0 0 0 0 0 0 0 0 0 0 0 0 0 0 0 0 0 0 0 0 0 0 0
0 0 0 0 0 0 0 1 1 1 1 1 1 1 2 1 1 1 1 0 0 0 0 -0 0 0 0 0 0 0 0 0 0 0 0 0 0 0 0 0 0 0 0
0 0 0 0 0 0 0 0 0 1 1 1 1 1 1 1 0 0 0 0 0 0 0 -0 -0 0 0 0 0 0 0 0 0 0 0 0 0 0 0 0 0 0 0
0 0 0 0 0 0 0 0 0 0 0 1 1 1 1 1 1 1 0 0 0 0 0 0 0 0 0 0 0 1 0 0 0 0 0 0 0 0 0 0 0 0 0
0 0 0 0 0 0 0 0 0 0 0 0 0 1 1 1 1 0 0 0 0 0 0 0 0 0 0 0 0 0 0 0 0 0 0 0 0 0 0 0 0 0 0
0 0 0 0 0 0 0 0 0 0 0 1 0 1 1 0 0 0 1 1 1 1 0 0 0 0 0 0 0 0 0 0 0 0 0 0 0 0 0 0 0 0 0
0 0 0 0 0 0 0 0 1 1 0 1 0 0 1 1 0 0 0 0 0 0 0 0 0 0 0 0 0 0 0 0 0 0 0 0 0 0 0 0 0 0 0
0 0 0 0 0 0 0 0 0 0 0 1 0 0 0 0 0 0 1 1 0 0 0 0 0 0 0 0 0 0 0 0 0 0 0 0 0 0 0 0 0 0 0
0 0 0 0 0 0 0 0 0 0 0 1 0 0 0 0 0 0 0 0 0 0 0 0 0 0 0 0 0 0 0 0 0 0 0 0 0 0 0 0 0 0 0
0 0 0 0 0 0 0 0 0 0 0 0 0 0 0 1 0 0 0 0 0 0 0 0 0 0 0 0 0 0 0 0 0 0 0 0 0 0 0 0 0 0 0
0 0 0 0 0 0 0 0 0 0 0 0 -0 0 0 0 0 0 0 0 0 0 0 0 0 0 0 0 0 0 0 0 0 0 0 0 0 0 0 0 0 0 0
0 0 0 0 0 0 0 0 0 0 0 -0 0 0 0 0 0 0 0 0 0 0 0 0 0 0 0 0 0 0 0 0 0 0 0 0 0 0 0 0 0 0 0
0 0 0 0 0 0 0 0 0 0 0 0 0 0 0 0 0 0 0 0 0 0 0 0 0 0 0 0 0 0 0 0 0 0 0 0 0 0 0 0 0 0 0
Wind_Speed_500mb
53 51 51 50 50 49 50 50 50 49 48 46 47 47 45 44 42 40 38 40 38 33 28 25 22 21 21 23 24 25 23 23 20 22 20 19 19 22 24 25 26 28 29
57 58 58 57 57 55 54 54 55 56 56 54 53 53 51 50 49 46 45 45 45 40 38 33 30 27 25 26 25 27 26 27 24 24 22 20 18 20 23 27 30 33 34
53 61 67 57 61 62 60 60 60 61 65 62 63 61 60 60 58 54 50 50 52 52 46 39 34 33 31 32 30 30 30 31 30 28 23 20 20 20 23 30 34 42 40
58 63 75 65 58 65 68 66 66 66 71 72 71 71 68 67 65 62 55 55 54 57 53 43 39 39 38 36 35 35 37 33 33 31 28 26 29 30 29 30 38 50 45
55 73 76 63 66 66 70 74 73 71 74 77 78 77 75 74 72 68 64 60 55 56 58 53 47 45 42 41 39 39 38 39 37 33 29 34 37 41 52 47 50 47 48
77 65 61 61 68 71 69 74 75 75 75 78 81 85 81 79 79 74 72 67 62 57 58 59 55 51 45 42 37 41 46 43 45 40 42 45 49 47 49 59 54 51 49
55 59 62 53 48 62 57 60 63 63 72 78 83 80 84 83 79 78 79 72 71 69 65 60 57 55 49 44 40 41 46 44 47 51 53 59 56 60 63 63 60 61 55
67 64 63 71 50 73 67 64 64 67 74 74 75 73 72 73 82 83 78 74 77 73 71 67 61 61 54 48 45 43 45 46 46 48 51 60 57 59 62 65 66 58 49
63 67 60 67 73 79 92 82 104 83 76 74 75 56 32 43 60 65 72 65 74 74 79 74 68 65 59 54 48 48 44 41 45 46 49 52 47 48 53 60 51 40 37
54 56 54 53 55 55 64 83 104 92 95 99 88 78 78 81 67 56 50 42 36 49 59 72 71 69 66 61 51 48 44 40 47 44 52 40 44 45 47 44 38 24 29
49 49 48 47 50 53 56 55 67 77 85 92 88 91 95 102 91 86 65 68 66 72 66 46 62 74 72 68 55 52 43 46 49 48 49 37 38 44 38 34 27 19 26
51 51 52 54 50 49 51 54 55 62 68 72 76 84 89 93 89 89 85 81 71 80 69 68 56 54 72 69 63 55 45 49 54 51 45 36 36 38 30 21 16 13 14
64 66 67 69 69 66 63 62 64 67 66 66 67 73 75 81 92 74 69 68 62 69 72 66 72 79 77 69 69 59 47 52 54 52 44 38 33 29 24 16 12 9 14
76 76 75 70 71 70 71 67 62 62 63 70 69 71 74 79 77 90 95 79 52 69 68 70 67 59 66 57 49 49 47 56 52 49 43 37 28 25 24 23 16 9 10
82 81 80 79 67 72 75 72 71 68 63 62 62 68 75 76 77 77 84 74 92 82 83 69 65 64 68 53 51 57 49 51 47 46 40 34 25 21 21 18 15 15 15
81 78 79 81 81 74 70 72 78 79 76 71 70 67 74 82 80 83 91 88 102 83 89 105 70 62 62 65 68 58 48 46 45 43 35 31 26 19 20 19 17 16 16
91 89 81 75 77 84 78 73 71 72 73 74 71 69 76 81 87 83 89 101 101 101 102 103 105 83 69 61 59 54 48 48 45 39 32 29 30 21 22 25 21 18 16
83 88 91 89 79 75 83 80 74 75 78 75 73 72 80 77 86 85 91 85 74 74 88 93 84 66 49 52 54 50 47 45 41 33 28 27 34 26 24 26 26 24 22
75 78 82 85 91 80 68 78 72 67 71 68 67 74 77 81 87 89 96 92 73 67 59 53 51 29 65 46 54 50 48 45 42 36 34 34 28 24 21 24 27 26 24
76 75 73 77 77 82 82 65 73 69 70 69 72 78 79 84 89 87 85 79 72 71 62 58 50 54 39 65 68 62 52 52 39 35 36 36 32 27 20 21 24 21 19
70 74 75 76 79 87 89 80 60 62 67 70 74 81 90 88 93 93 93 94 91 85 65 58 49 53 53 81 73 68 61 47 40 36 30 33 33 27 18 17 20 22 18
72 71 72 73 76 74 74 89 85 65 65 72 83 93 91 91 98 100 94 84 94 98 100 79 77 81 91 95 82 73 67 56 43 43 36 35 34 31 26 23 24 23 16
72 68 67 64 67 72 74 73 91 83 77 73 83 87 81 86 88 97 96 88 88 102 93 91 90 91 101 80 70 77 67 61 56 42 37 34 36 32 28 30 30 26 22
72 69 66 64 66 66 67 66 62 84 87 80 85 75 78 80 82 91 93 86 85 87 80 81 79 85 77 77 61 72 68 55 47 40 40 39 35 29 22 18 23 28 27
69 65 59 58 61 63 52 46 54 85 82 77 74 66 69 65 79 73 69 65 69 79 67 59 78 77 71 67 64 65 60 55 47 45 42 37 33 22 20 22 21 34 28
57 59 58 56 52 56 46 35 37 63 65 63 67 58 63 71 73 62 76 65 78 71 65 63 54 49 58 58 66 56 53 55 46 41 46 44 35 35 25 25 26 38 32
Wind_Direction_500mb
236 238 239 236 237 238 237 236 239 240 240 241 244 246 246 249 250 251 248 242 247 256 254 255 266 280 284 280 270 263 277 285 296 298 292 289 289 290 292 294 289 286 276
241 242 243 245 245 244 243 244 244 246 247 247 248 252 254 254 255 253 255 246 248 254 254 254 267 272 279 282 282 266 272 278 283 285 285 289 291 296 302 303 298 288 282
241 247 245 249 250 250 250 249 250 250 252 250 249 249 251 252 253 254 252 255 251 254 257 257 257 265 277 278 282 274 268 274 277 281 283 290 289 289 304 318 318 303 284
252 255 250 251 257 252 252 255 257 257 257 256 256 258 260 259 259 259 258 258 259 253 255 259 255 264 275 275 272 276 270 278 283 282 288 292 292 289 303 312 317 302 291
259 256 254 258 261 259 257 258 258 262 266 268 267 267 265 266 266 266 261 258 259 254 253 256 255 260 269 270 271 270 274 274 283 279 284 289 294 294 289 303 307 299 288
276 268 276 270 265 263 262 264 265 268 271 272 274 272 273 272 272 268 263 262 259 255 254 260 257 257 264 269 273 272 273 275 273 277 281 285 289 296 300 299 297 298 288
281 279 284 284 281 284 281 280 276 276 277 278 276 273 274 274 273 270 263 259 258 256 254 256 256 255 256 265 271 275 276 277 275 275 285 294 289 291 296 303 302 295 283
282 288 292 281 249 302 300 292 292 299 294 287 275 276 277 275 272 268 269 260 258 258 255 254 254 257 258 261 271 276 281 282 278 278 291 294 288 293 298 302 301 289 273
268 272 273 280 277 258 260 281 274 288 284 291 288 269 272 271 280 277 273 269 261 260 258 258 255 257 259 263 270 275 278 281 279 281 290 296 290 295 301 304 304 286 263
276 278 276 273 273 271 268 261 264 255 274 276 281 285 279 276 270 277 273 275 262 262 267 262 256 257 258 259 266 271 272 269 273 280 289 291 292 299 307 305 305 281 272
285 287 287 285 272 269 275 271 264 265 265 263 258 274 277 279 274 259 266 260 257 261 272 286 263 258 260 259 263 270 271 267 274 279 287 284 290 303 316 310 312 283 280
277 278 281 280 277 271 266 268 270 269 269 270 270 268 260 248 263 266 262 264 262 266 265 267 275 275 269 260 260 268 267 269 273 281 282 283 294 305 312 312 331 323 267
273 277 277 274 272 270 270 267 263 264 266 269 269 263 261 254 251 252 254 260 269 273 269 260 266 269 275 266 257 261 262 267 271 277 276 286 294 300 292 299 314 289 288
267 268 267 271 272 274 272 271 270 270 271 270 268 266 264 259 256 251 245 256 264 263 273 272 269 272 275 263 254 257 260 263 266 266 269 283 284 290 279 280 279 279 268
270 267 263 263 262 269 269 270 271 273 275 276 273 264 257 260 259 249 242 238 249 246 258 271 273 266 262 264 269 271 259 257 256 257 265 272 276 280 272 270 275 259 260
270 270 267 263 258 253 258 261 263 265 268 270 271 268 257 252 257 254 252 247 235 239 240 254 265 276 270 263 267 256 248 243 244 253 261 263 264 265 265 266 265 252 249
272 269 268 266 262 256 250 252 257 262 262 266 269 269 266 254 253 257 246 241 247 242 235 233 249 262 261 263 255 241 230 234 239 249 249 251 258 256 269 268 262 258 258
278 272 267 262 262 260 254 250 253 256 263 265 267 268 267 265 253 250 241 241 248 245 239 236 237 252 257 252 238 231 231 230 235 240 242 250 258 255 252 263 262 264 267
286 281 272 268 262 257 257 248 245 247 254 259 267 265 266 262 251 246 245 245 233 228 222 216 224 267 235 238 236 235 232 227 232 235 236 242 251 256 251 259 266 265 262
289 290 288 269 264 262 253 255 248 246 248 254 260 264 266 262 256 244 242 233 211 203 203 225 244 258 241 239 243 240 230 225 229 231 228 237 246 242 249 265 260 259 259
295 285 282 274 269 265 258 249 251 253 252 259 266 264 265 260 258 250 237 229 222 220 217 226 226 241 228 246 239 232 222 219 222 222 223 228 232 234 240 248 244 245 251
302 292 276 274 273 268 264 247 247 263 266 259 264 269 271 261 253 250 247 244 236 228 229 239 236 215 218 228 229 224 211 208 209 212 219 225 227 232 245 246 233 240 229
298 300 283 283 272 269 270 257 242 247 268 270 270 274 268 250 243 245 242 240 242 240 238 253 249 236 226 228 216 209 208 212 215 213 222 226 222 235 241 236 231 220 200
298 296 285 280 278 276 271 259 247 234 260 272 270 273 254 247 242 236 235 236 238 238 236 237 239 236 229 215 209 211 209 207 211 219 220 219 217 234 236 223 208 193 184
296 296 285 280 277 277 267 258 254 233 261 270 271 260 247 245 238 230 234 220 226 227 225 224 229 222 216 205 211 199 197 206 209 208 206 213 209 199 182 179 199 174 173
299 299 294 272 270 277 270 254 252 253 261 265 263 247 240 233 233 225 215 203 210 190 189 185 179 170 180 184 198 209 212 201 203 207 209 207 200 182 165 183 186 184 179
Wind_Speed_850mb
53 51 51 50 50 49 50 50 50 49 48 46 47 47 45 44 42 40 38 40 38 33 28 25 22 21 21 23 24 25 23 23 20 22 20 19 19 22 24 25 26 28 29
57 58 58 57 57 55 54 54 55 56 56 54 53 53 51 50 49 46 45 45 45 40 38 33 30 27 25 26 25 27 26 27 24 24 22 20 18 20 23 27 30 33 34
53 61 67 57 61 62 60 60 60 61 65 62 63 61 60 60 58 54 50 50 52 52 46 39 34 33 31 32 30 30 30 31 30 28 23 20 20 20 23 30 34 42 40
58 63 75 65 58 65 68 66 66 66 71 72 71 71 68 67 65 62 55 55 54 57 53 43 39 39 38 36 35 35 37 33 33 31 28 26 29 30 29 30 38 50 45
55 73 76 63 66 66 70 74 73 71 74 77 78 77 75 74 72 68 64 60 55 56 58 53 47 45 42 41 39 39 38 39 37 33 29 34 37 41 52 47 50 47 48
77 65 61 61 68 71 69 74 75 75 75 78 81 85 81 79 79 74 72 67 62 57 58 59 55 51 45 42 37 41 46 43 45 40 42 45 49 47 49 59 54 51 49
55 59 62 53 48 62 57 60 63 63 72 78 83 80 84 83 79 78 79 72 71 69 65 60 57 55 49 44 40 41 46 44 47 51 53 59 56 60 63 63 60 61 55
67 64 63 71 50 73 67 64 64 67 74 74 75 73 72 73 82 83 78 74 77 73 71 67 61 61 54 48 45 43 45 46 46 48 51 60 57 59 62 65 66 58 49
63 67 60 67 73 79 92 82 104 83 76 74 75 56 32 43 60 65 72 65 74 74 79 74 68 65 59 54 48 48 44 41 45 46 49 52 47 48 53 60 51 40 37
54 56 54 53 55 55 64 83 104 92 95 99 88 78 78 81 67 56 50 42 36 49 59 72 71 69 66 61 51 48 44 40 47 44 52 40 44 45 47 44 38 24 29
49 49 48 47 50 53 56 55 67 77 85 92 88 91 95 102 91 86 65 68 66 72 66 46 62 74 72 68 55 52 43 46 49 48 49 37 38 44 38 34 27 19 26
51 51 52 54 50 49 51 54 55 62 68 72 76 84 89 93 89 89 85 81 71 80 69 68 56 54 72 69 63 55 45 49 54 51 45 36 36 38 30 21 16 13 14
64 66 67 69 69 66 63 62 64 67 66 66 67 73 75 81 92 74 69 68 62 69 72 66 72 79 77 69 69 59 47 52 54 52 44 38 33 29 24 16 12 9 14
76 76 75 70 71 70 71 67 62 62 63 70 69 71 74 79 77 90 95 79 52 69 68 70 67 59 66 57 49 49 47 56 52 49 43 37 28 25 24 23 16 9 10
82 81 80 79 67 72 75 72 71 68 63 62 62 68 75 76 77 77 84 74 92 82 83 69 65 64 68 53 51 57 49 51 47 46 40 34 25 21 21 18 15 15 15
81 78 79 81 81 74 70 72 78 79 76 71 70 67 74 82 80 83 91 88 102 83 89 105 70 62 62 65 68 58 48 46 45 43 35 31 26 19 20 19 17 16 16
91 89 81 75 77 84 78 73 71 72 73 74 71 69 76 81 87 83 89 101 101 101 102 103 105 83 69 61 59 54 48 48 45 39 32 29 30 21 22 25 21 18 16
83 88 91 89 79 75 83 80 74 75 78 75 73 72 80 77 86 85 91 85 74 74 88 93 84 66 49 52 54 50 47 45 41 33 28 27 34 26 24 26 26 24 22
75 78 82 85 91 80 68 78 72 67 71 68 67 74 77 81 87 89 96 92 73 67 59 53 51 29 65 46 54 50 48 45 42 36 34 34 28 24 21 24 27 26 24
76 75 73 77 77 82 82 65 73 69 70 69 72 78 79 84 89 87 85 79 72 71 62 58 50 54 39 65 68 62 52 52 39 35 36 36 32 27 20 21 24 21 19
70 74 75 76 79 87 89 80 60 62 67 70 74 81 90 88 93 93 93 94 91 85 65 58 49 53 53 81 73 68 61 47 40 36 30 33 33 27 18 17 20 22 18
72 71 72 73 76 74 74 89 85 65 65 72 83 93 91 91 98 100 94 84 94 98 100 79 77 81 91 95 82 73 67 56 43 43 36 35 34 31 26 23 24 23 16
72 68 67 64 67 72 74 73 91 83 77 73 83 87 81 86 88 97 96 88 88 102 93 91 90 91 101 80 70 77 67 61 56 42 37 34 36 32 28 30 30 26 22
72 69 66 64 66 66 67 66 62 84 87 80 85 75 78 80 82 91 93 86 85 87 80 81 79 85 77 77 61 72 68 55 47 40 40 39 35 29 22 18 23 28 27
69 65 59 58 61 63 52 46 54 85 82 77 74 66 69 65 79 73 69 65 69 79 67 59 78 77 71 67 64 65 60 55 47 45 42 37 33 22 20 22 21 34 28
57 59 58 56 52 56 46 35 37 63 65 63 67 58 63 71 73 62 76 65 78 71 65 63 54 49 58 58 66 56 53 55 46 41 46 44 35 35 25 25 26 38 32
Wind_Direction_850mb
236 238 239 236 237 238 237 236 239 240 240 241 244 246 246 249 250 251 248 242 247 256 254 255 266 280 284 280 270 263 277 285 296 298 292 289 289 290 292 294 289 286 276
241 242 243 245 245 244 243 244 244 246 247 247 248 252 254 254 255 253 255 246 248 254 254 254 267 272 279 282 282 266 272 278 283 285 285 289 291 296 302 303 298 288 282
241 247 245 249 250 250 250 249 250 250 252 250 249 249 251 252 253 254 252 255 251 254 257 257 257 265 277 278 282 274 268 274 277 281 283 290 289 289 304 318 318 303 284
252 255 250 251 257 252 252 255 257 257 257 256 256 258 260 259 259 259 258 258 259 253 255 259 255 264 275 275 272 276 270 278 283 282 288 292 292 289 303 312 317 302 291
259 256 254 258 261 259 257 258 258 262 266 268 267 267 265 266 266 266 261 258 259 254 253 256 255 260 269 270 271 270 274 274 283 279 284 289 294 294 289 303 307 299 288
276 268 276 270 265 263 262 264 265 268 271 272 274 272 273 272 272 268 263 262 259 255 254 260 257 257 264 269 273 272 273 275 273 277 281 285 289 296 300 299 297 298 288
281 279 284 284 281 284 281 280 276 276 277 278 276 273 274 274 273 270 263 259 258 256 254 256 256 255 256 265 271 275 276 277 275 275 285 294 289 291 296 303 302 295 283
282 288 292 281 249 302 300 292 292 299 294 287 275 276 277 275 272 268 269 260 258 258 255 254 254 257 258 261 271 276 281 282 278 278 291 294 288 293 298 302 301 289 273
268 272 273 280 277 258 260 281 274 288 284 291 288 269 272 271 280 277 273 269 261 260 258 258 255 257 259 263 270 275 278 281 279 281 290 296 290 295 301 304 304 286 263
276 278 276 273 273 271 268 261 264 255 274 276 281 285 279 276 270 277 273 275 262 262 267 262 256 257 258 259 266 271 272 269 273 280 289 291 292 299 307 305 305 281 272
285 287 287 285 272 269 275 271 264 265 265 263 258 274 277 279 274 259 266 260 257 261 272 286 263 258 260 259 263 270 271 267 274 279 287 284 290 303 316 310 312 283 280
277 278 281 280 277 271 266 268 270 269 269 270 270 268 260 248 263 266 262 264 262 266 265 267 275 275 269 260 260 268 267 269 273 281 282 283 294 305 312 312 331 323 267
273 277 277 274 272 270 270 267 263 264 266 269 269 263 261 254 251 252 254 260 269 273 269 260 266 269 275 266 257 261 262 267 271 277 276 286 294 300 292 299 314 289 288
267 268 267 271 272 274 272 271 270 270 271 270 268 266 264 259 256 251 245 256 264 263 273 272 269 272 275 263 254 257 260 263 266 266 269 283 284 290 279 280 279 279 268
270 267 263 263 262 269 269 270 271 273 275 276 273 264 257 260 259 249 242 238 249 246 258 271 273 266 262 264 269 271 259 257 256 257 265 272 276 280 272 270 275 259 260
270 270 267 263 258 253 258 261 263 265 268 270 271 268 257 252 257 254 252 247 235 239 240 254 265 276 270 263 267 256 248 243 244 253 261 263 264 265 265 266 265 252 249
272 269 268 266 262 256 250 252 257 262 262 266 269 269 266 254 253 257 246 241 247 242 235 233 249 262 261 263 255 241 230 234 239 249 249 251 258 256 269 268 262 258 258
278 272 267 262 262 260 254 250 253 256 263 265 267 268 267 265 253 250 241 241 248 245 239 236 237 252 257 252 238 231 231 230 235 240 242 250 258 255 252 263 262 264 267
286 281 272 268 262 257 257 248 245 247 254 259 267 265 266 262 251 246 245 245 233 228 222 216 224 267 235 238 236 235 232 227 232 235 236 242 251 256 251 259 266 265 262
289 290 288 269 264 262 253 255 248 246 248 254 260 264 266 262 256 244 242 233 211 203 203 225 244 258 241 239 243 240 230 225 229 231 228 237 246 242 249 265 260 259 259
295 285 282 274 269 265 258 249 251 253 252 259 266 264 265 260 258 250 237 229 222 220 217 226 226 241 228 246 239 232 222 219 222 222 223 228 232 234 240 248 244 245 251
302 292 276 274 273 268 264 247 247 263 266 259 264 269 271 261 253 250 247 244 236 228 229 239 236 215 218 228 229 224 211 208 209 212 219 225 227 232 245 246 233 240 229
298 300 283 283 272 269 270 257 242 247 268 270 270 274 268 250 243 245 242 240 242 240 238 253 249 236 226 228 216 209 208 212 215 213 222 226 222 235 241 236 231 220 200
298 296 285 280 278 276 271 259 247 234 260 272 270 273 254 247 242 236 235 236 238 238 236 237 239 236 229 215 209 211 209 207 211 219 220 219 217 234 236 223 208 193 184
296 296 285 280 277 277 267 258 254 233 261 270 271 260 247 245 238 230 234 220 226 227 225 224 229 222 216 205 211 199 197 206 209 208 206 213 209 199 182 179 199 174 173
299 299 294 272 270 277 270 254 252 253 261 265 263 247 240 233 233 225 215 203 210 190 189 185 179 170 180 184 198 209 212 201 203 207 209 207 200 182 165 183 186 184 179